QPF
0.00 0.00 0.00 0.00 0.00 0.00 0.00 0.00 0.00 0.00 0.00 0.00 0.00 0.00 0.00 0.00 0.00 0.00 0.00 0.00 0.00 0.00 0.00 0.00 0.00 0.00 0.00 0.00 0.00 0.00 0.00 0.00 0.00 0.01 0.01 0.01 0.01 0.01 0.01 0.01 0.01 0.01 0.01 0.01
0.00 0.00 0.00 0.00 0.00 0.00 0.00 0.00 0.00 0.00 0.00 0.00 0.00 0.00 0.00 0.00 0.00 0.00 0.00 0.00 0.00 0.00 0.00 0.00 0.00 0.00 0.00 0.00 0.00 0.00 0.00 0.00 0.00 0.00 0.01 0.01 0.01 0.01 0.01 0.01 0.01 0.01 0.01 0.01
0.00 0.00 0.00 0.00 0.00 0.00 0.00 0.00 0.00 0.00 0.00 0.00 0.00 0.00 0.00 0.00 0.00 0.00 0.00 0.00 0.00 0.00 0.00 0.00 0.00 0.00 0.00 0.00 0.00 0.00 0.00 0.00 0.00 0.00 0.01 0.01 0.01 0.01 0.01 0.01 0.01 0.00 0.00 0.00
0.00 0.00 0.00 0.00 0.00 0.00 0.00 0.00 0.00 0.00 0.00 0.00 0.00 0.00 0.00 0.00 0.00 0.00 0.00 0.00 0.00 0.00 0.00 0.00 0.00 0.00 0.00 0.00 0.00 0.00 0.00 0.00 0.00 0.00 0.00 0.00 0.00 0.00 0.00 0.00 0.00 0.00 0.00 0.00
0.00 0.00 0.00 0.00 0.00 0.00 0.00 0.00 0.00 0.00 0.00 0.00 0.00 0.00 0.00 0.00 0.00 0.00 0.00 0.00 0.00 0.00 0.00 0.00 0.00 0.00 0.00 0.00 0.00 0.00 0.00 0.00 0.00 0.00 0.00 0.00 0.00 0.00 0.00 0.00 0.00 0.00 0.00 0.00
0.00 0.00 0.00 0.00 0.00 0.00 0.00 0.00 0.00 0.00 0.00 0.00 0.00 0.00 0.00 0.00 0.00 0.00 0.00 0.00 0.00 0.00 0.00 0.00 0.00 0.00 0.00 0.00 0.00 0.00 0.00 0.00 0.00 0.00 0.00 0.01 0.00 0.00 0.00 0.00 0.00 0.00 0.00 0.00
0.01 0.00 0.00 0.00 0.00 0.00 0.00 0.00 0.00 0.00 0.00 0.00 0.00 0.00 0.00 0.00 0.00 0.00 0.00 0.00 0.00 0.00 0.00 0.00 0.00 0.00 0.00 0.00 0.00 0.00 0.00 0.00 0.00 0.00 0.00 0.01 0.00 0.00 0.00 0.00 0.00 0.00 0.00 0.00
0.01 0.01 0.00 0.00 0.00 0.00 0.00 0.00 0.00 0.00 0.00 0.00 0.00 0.00 0.00 0.00 0.00 0.00 0.00 0.00 0.00 0.00 0.00 0.00 0.00 0.00 0.00 0.00 0.00 0.00 0.00 0.00 0.00 0.00 0.00 0.00 0.00 0.00 0.00 0.00 0.00 0.00 0.00 0.00
0.00 0.00 0.00 0.00 0.00 0.00 0.00 0.00 0.00 0.00 0.00 0.00 0.00 0.00 0.00 0.00 0.00 0.00 0.00 0.00 0.00 0.00 0.00 0.00 0.00 0.00 0.00 0.00 0.00 0.00 0.00 0.00 0.00 0.00 0.00 0.00 0.00 0.00 0.00 0.00 0.00 0.00 0.00 0.00
0.00 0.00 0.00 0.00 0.00 0.00 0.00 0.00 0.00 0.00 0.00 0.00 0.00 0.00 0.00 0.00 0.00 0.00 0.00 0.00 0.00 0.00 0.00 0.00 0.00 0.00 0.00 0.00 0.00 0.00 0.00 0.00 0.00 0.00 0.00 0.00 0.00 0.00 0.00 0.00 0.00 0.00 0.00 0.00
0.00 0.00 0.00 0.00 0.00 0.00 0.00 0.00 0.00 0.00 0.00 0.00 0.00 0.00 0.00 0.00 0.00 0.00 0.00 0.00 0.00 0.00 0.00 0.00 0.00 0.00 0.00 0.00 0.00 0.00 0.00 0.00 0.00 0.00 0.00 0.00 0.00 0.00 0.00 0.00 0.00 0.00 0.00 0.00
0.00 0.00 0.00 0.00 0.00 0.00 0.00 0.00 0.00 0.00 0.00 0.00 0.00 0.00 0.00 0.00 0.00 0.00 0.00 0.00 0.00 0.00 0.00 0.00 0.00 0.00 0.00 0.00 0.00 0.00 0.00 0.00 0.00 0.00 0.00 0.00 0.00 0.00 0.00 0.00 0.00 0.00 0.00 0.00
0.01 0.02 0.02 0.02 0.00 0.00 0.00 0.00 0.00 0.00 0.00 0.00 0.00 0.00 0.00 0.00 0.00 0.00 0.00 0.00 0.00 0.00 0.00 0.00 0.00 0.00 0.00 0.00 0.00 0.00 0.00 0.00 0.00 0.00 0.00 0.00 0.00 0.00 0.00 0.00 0.00 0.00 0.00 0.00
0.01 0.02 0.01 0.01 0.00 0.00 0.00 0.00 0.00 0.00 0.00 0.00 0.00 0.00 0.00 0.00 0.00 0.00 0.00 0.00 0.00 0.00 0.00 0.00 0.00 0.00 0.00 0.00 0.00 0.00 0.00 0.00 0.00 0.00 0.00 0.00 0.00 0.00 0.00 0.00 0.00 0.00 0.00 0.00
0.03 0.03 0.01 0.00 0.00 0.00 0.00 0.00 0.00 0.00 0.00 0.00 0.00 0.00 0.00 0.00 0.00 0.00 0.00 0.00 0.00 0.00 0.00 0.00 0.00 0.00 0.00 0.00 0.00 0.00 0.00 0.00 0.00 0.00 0.00 0.00 0.00 0.00 0.00 0.00 0.00 0.00 0.00 0.00
0.03 0.03 0.01 0.00 0.00 0.00 0.00 0.00 0.00 0.00 0.00 0.00 0.00 0.00 0.00 0.00 0.00 0.00 0.00 0.00 0.00 0.00 0.00 0.00 0.00 0.00 0.00 0.00 0.00 0.00 0.00 0.00 0.00 0.00 0.00 0.00 0.00 0.00 0.00 0.00 0.00 0.00 0.00 0.00
0.02 0.02 0.01 0.01 0.00 0.01 0.01 0.00 0.00 0.00 0.00 0.00 0.00 0.00 0.00 0.00 0.00 0.00 0.00 0.00 0.00 0.00 0.00 0.00 0.00 0.00 0.00 0.00 0.00 0.00 0.00 0.00 0.00 0.00 0.00 0.00 0.00 0.00 0.00 0.00 0.00 0.00 0.00 0.00
0.02 0.01 0.02 0.01 0.01 0.04 0.01 0.00 0.00 0.00 0.00 0.00 0.00 0.00 0.00 0.00 0.00 0.00 0.00 0.00 0.00 0.00 0.00 0.00 0.00 0.00 0.00 0.00 0.00 0.00 0.00 0.00 0.00 0.00 0.00 0.00 0.00 0.00 0.00 0.00 0.00 0.00 0.00 0.00
0.01 0.02 0.04 0.03 0.02 0.01 0.00 0.00 0.00 0.00 0.00 0.00 0.00 0.00 0.00 0.00 0.00 0.00 0.00 0.00 0.00 0.00 0.00 0.00 0.00 0.00 0.00 0.00 0.00 0.00 0.00 0.00 0.00 0.00 0.00 0.00 0.00 0.00 0.00 0.00 0.00 0.00 0.00 0.00
0.02 0.02 0.04 0.04 0.03 0.01 0.00 0.00 0.00 0.00 0.00 0.00 0.00 0.00 0.00 0.00 0.00 0.00 0.00 0.00 0.00 0.00 0.00 0.00 0.00 0.00 0.00 0.00 0.00 0.00 0.00 0.00 0.00 0.00 0.00 0.00 0.00 0.00 0.00 0.00 0.00 0.00 0.00 0.00
0.03 0.04 0.04 0.03 0.02 0.00 0.00 0.00 0.00 0.00 0.00 0.00 0.00 0.00 0.00 0.00 0.00 0.00 0.00 0.00 0.00 0.00 0.00 0.00 0.00 0.00 0.00 0.00 0.00 0.00 0.00 0.00 0.00 0.00 0.00 0.00 0.00 0.00 0.00 0.00 0.00 0.00 0.00 0.00
0.03 0.03 0.03 0.02 0.01 0.00 0.00 0.00 0.00 0.00 0.00 0.00 0.00 0.00 0.00 0.00 0.00 0.00 0.00 0.00 0.00 0.00 0.00 0.00 0.00 0.00 0.00 0.00 0.00 0.00 0.00 0.00 0.00 0.00 0.00 0.00 0.00 0.00 0.00 0.00 0.00 0.00 0.00 0.00
0.02 0.02 0.02 0.01 0.01 0.00 0.00 0.00 0.00 0.00 0.00 0.00 0.00 0.00 0.00 0.00 0.00 0.00 0.00 0.00 0.00 0.00 0.00 0.00 0.00 0.00 0.00 0.00 0.00 0.00 0.00 0.00 0.00 0.00 0.00 0.00 0.00 0.00 0.00 0.00 0.00 0.00 0.00 0.00
0.02 0.01 0.01 0.01 0.01 0.00 0.00 0.00 0.00 0.00 0.00 0.00 0.00 0.00 0.00 0.00 0.00 0.00 0.00 0.00 0.00 0.00 0.00 0.00 0.00 0.00 0.00 0.00 0.00 0.00 0.00 0.00 0.00 0.00 0.00 0.00 0.00 0.00 0.00 0.00 0.00 0.00 0.00 0.00
0.01 0.01 0.00 0.01 0.00 0.00 0.00 0.00 0.00 0.00 0.00 0.00 0.00 0.00 0.00 0.00 0.00 0.00 0.00 0.00 0.00 0.00 0.00 0.00 0.00 0.00 0.00 0.00 0.00 0.00 0.00 0.00 0.00 0.00 0.00 0.00 0.00 0.00 0.00 0.00 0.00 0.00 0.00 0.00
0.00 0.00 0.00 0.00 0.00 0.00 0.00 0.00 0.00 0.00 0.00 0.00 0.00 0.00 0.00 0.00 0.00 0.00 0.00 0.00 0.00 0.00 0.00 0.00 0.00 0.00 0.00 0.00 0.00 0.00 0.00 0.00 0.00 0.00 0.00 0.00 0.00 0.00 0.00 0.00 0.00 0.00 0.00 0.00
MSLP
1011.03 1011.30 1011.52 1011.72 1011.93 1012.16 1012.43 1012.72 1012.98 1013.18 1013.26 1013.18 1012.92 1012.46 1011.84 1011.11 1010.34 1009.60 1008.97 1008.51 1008.24 1008.17 1008.30 1008.58 1009.00 1009.50 1010.06 1010.66 1011.29 1011.94 1012.61 1013.30 1014.00 1014.69 1015.36 1016.00 1016.59 1017.13 1017.61 1018.05 1018.44 1018.80 1019.14 1019.46
1010.80 1010.98 1011.11 1011.26 1011.47 1011.75 1012.11 1012.52 1012.92 1013.24 1013.40 1013.35 1013.06 1012.54 1011.83 1010.99 1010.13 1009.32 1008.65 1008.18 1007.93 1007.90 1008.07 1008.40 1008.85 1009.37 1009.93 1010.53 1011.15 1011.80 1012.47 1013.16 1013.87 1014.58 1015.26 1015.90 1016.49 1017.01 1017.48 1017.91 1018.29 1018.66 1019.01 1019.35
1010.36 1010.48 1010.57 1010.71 1010.95 1011.31 1011.78 1012.32 1012.85 1013.27 1013.49 1013.46 1013.15 1012.56 1011.76 1010.83 1009.89 1009.03 1008.35 1007.89 1007.69 1007.72 1007.96 1008.34 1008.83 1009.37 1009.94 1010.52 1011.12 1011.75 1012.40 1013.09 1013.79 1014.49 1015.16 1015.80 1016.38 1016.90 1017.36 1017.77 1018.16 1018.53 1018.90 1019.26
1009.74 1009.84 1009.95 1010.12 1010.43 1010.89 1011.49 1012.15 1012.79 1013.29 1013.55 1013.52 1013.15 1012.49 1011.60 1010.59 1009.59 1008.71 1008.03 1007.62 1007.48 1007.60 1007.91 1008.37 1008.90 1009.46 1010.03 1010.59 1011.16 1011.75 1012.36 1013.01 1013.68 1014.36 1015.03 1015.65 1016.22 1016.73 1017.19 1017.60 1018.00 1018.38 1018.77 1019.16
1008.97 1009.12 1009.29 1009.55 1009.96 1010.55 1011.26 1012.04 1012.76 1013.30 1013.57 1013.50 1013.07 1012.32 1011.35 1010.27 1009.23 1008.34 1007.70 1007.35 1007.31 1007.52 1007.92 1008.45 1009.03 1009.61 1010.17 1010.70 1011.22 1011.74 1012.30 1012.89 1013.51 1014.16 1014.79 1015.40 1015.97 1016.47 1016.93 1017.36 1017.77 1018.17 1018.59 1019.01
1008.11 1008.35 1008.63 1009.01 1009.56 1010.27 1011.10 1011.96 1012.73 1013.28 1013.52 1013.39 1012.88 1012.05 1011.01 1009.88 1008.82 1007.96 1007.37 1007.11 1007.16 1007.47 1007.97 1008.56 1009.19 1009.77 1010.31 1010.79 1011.24 1011.69 1012.17 1012.69 1013.25 1013.84 1014.44 1015.03 1015.59 1016.10 1016.57 1017.01 1017.44 1017.88 1018.33 1018.79
1007.18 1007.54 1007.96 1008.49 1009.17 1010.01 1010.94 1011.86 1012.65 1013.19 1013.38 1013.17 1012.59 1011.69 1010.59 1009.44 1008.39 1007.57 1007.06 1006.89 1007.04 1007.45 1008.03 1008.68 1009.33 1009.92 1010.42 1010.84 1011.22 1011.58 1011.96 1012.40 1012.88 1013.42 1013.98 1014.55 1015.09 1015.61 1016.10 1016.57 1017.03 1017.50 1017.99 1018.50
1006.18 1006.67 1007.23 1007.92 1008.75 1009.70 1010.70 1011.66 1012.45 1012.95 1013.08 1012.82 1012.17 1011.23 1010.11 1008.98 1007.97 1007.22 1006.79 1006.71 1006.95 1007.44 1008.08 1008.77 1009.43 1010.00 1010.46 1010.82 1011.11 1011.39 1011.68 1012.03 1012.45 1012.93 1013.45 1013.99 1014.53 1015.06 1015.56 1016.06 1016.55 1017.06 1017.59 1018.14
1005.11 1005.72 1006.43 1007.25 1008.20 1009.24 1010.30 1011.27 1012.04 1012.50 1012.59 1012.28 1011.61 1010.67 1009.58 1008.50 1007.56 1006.90 1006.56 1006.57 1006.88 1007.42 1008.10 1008.80 1009.44 1009.98 1010.39 1010.69 1010.92 1011.12 1011.35 1011.63 1011.99 1012.42 1012.91 1013.43 1013.97 1014.50 1015.02 1015.53 1016.06 1016.59 1017.15 1017.73
1003.96 1004.69 1005.52 1006.45 1007.49 1008.59 1009.67 1010.64 1011.38 1011.80 1011.86 1011.55 1010.89 1010.00 1008.98 1008.00 1007.17 1006.60 1006.35 1006.43 1006.79 1007.35 1008.02 1008.71 1009.32 1009.82 1010.19 1010.44 1010.63 1010.79 1010.97 1011.22 1011.54 1011.95 1012.41 1012.92 1013.45 1013.99 1014.52 1015.04 1015.58 1016.13 1016.72 1017.32
1002.79 1003.60 1004.52 1005.53 1006.62 1007.74 1008.81 1009.75 1010.45 1010.85 1010.90 1010.61 1010.02 1009.22 1008.32 1007.46 1006.76 1006.30 1006.13 1006.26 1006.63 1007.18 1007.81 1008.45 1009.02 1009.48 1009.82 1010.05 1010.23 1010.38 1010.56 1010.81 1011.13 1011.54 1012.00 1012.51 1013.04 1013.57 1014.10 1014.63 1015.17 1015.73 1016.31 1016.92
1001.66 1002.54 1003.51 1004.55 1005.65 1006.75 1007.78 1008.66 1009.31 1009.68 1009.75 1009.50 1009.01 1008.34 1007.59 1006.89 1006.32 1005.97 1005.87 1006.01 1006.37 1006.87 1007.45 1008.02 1008.54 1008.96 1009.28 1009.52 1009.72 1009.91 1010.14 1010.42 1010.78 1011.20 1011.68 1012.20 1012.73 1013.27 1013.79 1014.32 1014.84 1015.39 1015.96 1016.56
1000.69 1001.60 1002.59 1003.63 1004.69 1005.72 1006.67 1007.46 1008.05 1008.39 1008.46 1008.28 1007.90 1007.38 1006.80 1006.26 1005.83 1005.58 1005.54 1005.69 1006.01 1006.45 1006.94 1007.44 1007.90 1008.29 1008.61 1008.89 1009.14 1009.40 1009.69 1010.04 1010.46 1010.93 1011.44 1011.98 1012.52 1013.05 1013.57 1014.08 1014.59 1015.12 1015.67 1016.25
999.98 1000.90 1001.87 1002.87 1003.85 1004.77 1005.59 1006.27 1006.76 1007.05 1007.13 1007.01 1006.74 1006.37 1005.96 1005.58 1005.29 1005.14 1005.14 1005.29 1005.56 1005.92 1006.34 1006.76 1007.17 1007.54 1007.88 1008.20 1008.52 1008.86 1009.25 1009.69 1010.17 1010.70 1011.24 1011.80 1012.35 1012.88 1013.39 1013.90 1014.40 1014.91 1015.43 1015.98
999.57 1000.48 1001.41 1002.32 1003.18 1003.96 1004.63 1005.16 1005.54 1005.76 1005.82 1005.75 1005.58 1005.34 1005.09 1004.87 1004.71 1004.65 1004.70 1004.84 1005.08 1005.38 1005.72 1006.08 1006.44 1006.80 1007.16 1007.53 1007.93 1008.36 1008.84 1009.35 1009.91 1010.48 1011.06 1011.64 1012.19 1012.73 1013.24 1013.73 1014.23 1014.72 1015.23 1015.75
999.46 1000.34 1001.20 1002.00 1002.71 1003.32 1003.81 1004.18 1004.42 1004.54 1004.58 1004.53 1004.43 1004.32 1004.21 1004.14 1004.11 1004.15 1004.25 1004.41 1004.63 1004.88 1005.17 1005.48 1005.82 1006.18 1006.56 1006.98 1007.44 1007.95 1008.50 1009.08 1009.68 1010.28 1010.88 1011.47 1012.02 1012.56 1013.07 1013.57 1014.06 1014.55 1015.05 1015.55
999.54 1000.37 1001.14 1001.81 1002.37 1002.80 1003.11 1003.30 1003.39 1003.42 1003.40 1003.37 1003.34 1003.33 1003.35 1003.41 1003.52 1003.66 1003.84 1004.04 1004.27 1004.52 1004.78 1005.08 1005.40 1005.77 1006.17 1006.63 1007.14 1007.69 1008.27 1008.88 1009.50 1010.11 1010.71 1011.29 1011.84 1012.37 1012.89 1013.39 1013.89 1014.38 1014.88 1015.36
999.65 1000.41 1001.08 1001.63 1002.03 1002.29 1002.42 1002.46 1002.42 1002.35 1002.29 1002.27 1002.29 1002.37 1002.51 1002.71 1002.95 1003.21 1003.49 1003.76 1004.04 1004.32 1004.61 1004.92 1005.25 1005.63 1006.05 1006.53 1007.05 1007.61 1008.20 1008.80 1009.41 1010.00 1010.57 1011.13 1011.67 1012.19 1012.70 1013.21 1013.72 1014.22 1014.72 1015.19
999.61 1000.28 1000.85 1001.27 1001.55 1001.67 1001.67 1001.58 1001.44 1001.31 1001.22 1001.21 1001.28 1001.45 1001.71 1002.04 1002.41 1002.81 1003.21 1003.59 1003.96 1004.31 1004.65 1005.00 1005.36 1005.76 1006.20 1006.67 1007.19 1007.73 1008.29 1008.86 1009.42 1009.96 1010.50 1011.02 1011.53 1012.04 1012.55 1013.06 1013.58 1014.09 1014.57 1015.03
999.25 999.84 1000.31 1000.64 1000.82 1000.86 1000.77 1000.61 1000.43 1000.27 1000.18 1000.19 1000.33 1000.59 1000.96 1001.42 1001.93 1002.47 1003.00 1003.51 1003.99 1004.44 1004.86 1005.27 1005.68 1006.10 1006.55 1007.02 1007.51 1008.01 1008.53 1009.03 1009.53 1010.02 1010.50 1010.98 1011.46 1011.95 1012.45 1012.97 1013.48 1013.98 1014.45 1014.88
998.52 999.02 999.42 999.69 999.82 999.82 999.72 999.55 999.37 999.23 999.18 999.25 999.46 999.81 1000.28 1000.86 1001.50 1002.18 1002.85 1003.49 1004.09 1004.65 1005.16 1005.64 1006.10 1006.56 1007.01 1007.47 1007.94 1008.40 1008.86 1009.30 1009.74 1010.17 1010.59 1011.03 1011.47 1011.94 1012.43 1012.93 1013.43 1013.91 1014.36 1014.74
997.45 997.88 998.23 998.48 998.61 998.63 998.56 998.45 998.33 998.26 998.28 998.43 998.72 999.16 999.73 1000.41 1001.16 1001.95 1002.73 1003.49 1004.21 1004.87 1005.47 1006.03 1006.55 1007.03 1007.50 1007.95 1008.39 1008.81 1009.22 1009.61 1009.99 1010.37 1010.76 1011.15 1011.57 1012.01 1012.48 1012.96 1013.43 1013.88 1014.28 1014.61
996.17 996.54 996.87 997.13 997.30 997.39 997.41 997.40 997.38 997.42 997.54 997.78 998.16 998.67 999.32 1000.08 1000.91 1001.78 1002.66 1003.51 1004.31 1005.06 1005.74 1006.35 1006.92 1007.44 1007.92 1008.37 1008.79 1009.19 1009.56 1009.92 1010.26 1010.61 1010.96 1011.34 1011.73 1012.15 1012.59 1013.03 1013.47 1013.87 1014.21 1014.48
994.87 995.20 995.52 995.80 996.05 996.23 996.38 996.49 996.62 996.78 997.02 997.36 997.82 998.41 999.11 999.92 1000.79 1001.71 1002.63 1003.53 1004.39 1005.19 1005.92 1006.59 1007.19 1007.73 1008.22 1008.68 1009.09 1009.48 1009.84 1010.18 1010.52 1010.85 1011.19 1011.55 1011.92 1012.32 1012.72 1013.13 1013.51 1013.85 1014.13 1014.32
993.71 994.00 994.33 994.66 994.99 995.28 995.56 995.83 996.10 996.40 996.76 997.20 997.74 998.38 999.11 999.94 1000.82 1001.75 1002.68 1003.60 1004.47 1005.29 1006.04 1006.73 1007.35 1007.91 1008.42 1008.88 1009.30 1009.68 1010.05 1010.39 1010.73 1011.07 1011.41 1011.76 1012.12 1012.49 1012.86 1013.22 1013.54 1013.81 1014.01 1014.13
992.82 993.08 993.42 993.79 994.19 994.60 995.01 995.42 995.83 996.27 996.75 997.28 997.88 998.56 999.31 1000.14 1001.01 1001.91 1002.83 1003.72 1004.59 1005.40 1006.15 1006.84 1007.46 1008.03 1008.54 1009.01 1009.43 1009.83 1010.20 1010.56 1010.91 1011.26 1011.61 1011.96 1012.31 1012.65 1012.98 1013.28 1013.54 1013.74 1013.87 1013.91
Thickness
5647 5643 5647 5658 5666 5670 5673 5673 5674 5686 5698 5690 5687 5693 5706 5715 5718 5721 5725 5728 5731 5734 5739 5740 5737 5733 5727 5722 5717 5711 5704 5697 5691 5683 5676 5668 5662 5658 5653 5648 5643 5638 5633 5629
5635 5639 5658 5664 5666 5665 5663 5661 5667 5679 5690 5684 5680 5688 5704 5713 5717 5722 5725 5727 5729 5731 5733 5733 5731 5726 5721 5716 5711 5706 5701 5693 5688 5681 5674 5666 5659 5653 5649 5644 5639 5634 5629 5624
5635 5653 5659 5657 5656 5656 5657 5656 5660 5663 5673 5677 5671 5676 5695 5712 5720 5724 5725 5727 5729 5728 5726 5726 5723 5720 5715 5710 5706 5702 5697 5690 5683 5677 5669 5661 5653 5646 5641 5636 5632 5628 5624 5619
5634 5650 5653 5649 5651 5653 5648 5662 5661 5658 5650 5649 5662 5650 5684 5700 5709 5715 5718 5720 5722 5725 5724 5721 5718 5714 5709 5705 5701 5697 5692 5685 5679 5672 5665 5656 5649 5642 5638 5633 5627 5623 5618 5614
5634 5646 5645 5645 5653 5654 5653 5660 5655 5651 5643 5638 5649 5642 5671 5696 5697 5706 5712 5716 5718 5719 5718 5715 5712 5709 5704 5699 5694 5689 5685 5679 5673 5667 5660 5653 5646 5640 5634 5628 5622 5617 5613 5608
5636 5649 5649 5650 5655 5655 5651 5645 5643 5640 5631 5622 5645 5640 5658 5685 5697 5703 5707 5709 5710 5711 5711 5709 5706 5702 5697 5691 5686 5681 5676 5671 5667 5661 5655 5649 5642 5636 5630 5623 5617 5612 5607 5602
5619 5632 5645 5650 5640 5642 5639 5624 5610 5608 5607 5620 5654 5648 5662 5694 5703 5704 5702 5703 5704 5704 5701 5698 5696 5692 5687 5682 5677 5673 5668 5664 5660 5655 5650 5644 5639 5633 5627 5620 5613 5607 5602 5596
5606 5613 5632 5640 5640 5634 5633 5628 5615 5609 5615 5634 5644 5643 5669 5697 5701 5703 5701 5699 5698 5697 5693 5691 5689 5685 5680 5675 5670 5666 5662 5658 5654 5649 5644 5640 5635 5629 5624 5618 5611 5605 5599 5593
5614 5617 5636 5640 5644 5639 5626 5625 5636 5625 5627 5622 5635 5656 5675 5690 5691 5692 5691 5690 5689 5688 5687 5684 5682 5678 5674 5669 5664 5660 5656 5652 5648 5644 5639 5635 5631 5625 5620 5614 5608 5601 5595 5589
5628 5618 5628 5632 5631 5633 5636 5631 5619 5610 5604 5603 5628 5643 5655 5671 5677 5682 5682 5682 5682 5682 5680 5678 5675 5672 5668 5664 5659 5654 5651 5647 5643 5639 5634 5630 5626 5621 5615 5609 5602 5596 5590 5584
5624 5616 5616 5618 5617 5621 5623 5623 5624 5618 5618 5612 5615 5639 5678 5676 5678 5677 5678 5679 5678 5675 5673 5671 5669 5667 5663 5658 5653 5649 5645 5641 5637 5633 5629 5624 5620 5615 5610 5603 5597 5591 5585 5579
5617 5612 5602 5610 5625 5631 5627 5627 5625 5613 5615 5622 5618 5636 5680 5678 5677 5676 5674 5674 5674 5672 5669 5666 5663 5660 5656 5652 5648 5644 5640 5636 5632 5628 5623 5618 5614 5609 5603 5597 5591 5585 5579 5573
5611 5601 5589 5587 5598 5611 5616 5623 5626 5624 5620 5617 5613 5632 5669 5669 5670 5671 5669 5667 5666 5665 5663 5660 5657 5653 5650 5647 5643 5639 5636 5632 5628 5623 5617 5612 5607 5602 5597 5591 5585 5579 5573 5566
5610 5599 5597 5596 5606 5613 5611 5618 5624 5619 5611 5616 5625 5638 5651 5656 5659 5661 5662 5662 5660 5659 5657 5654 5650 5648 5645 5642 5638 5635 5631 5627 5622 5617 5612 5606 5601 5596 5591 5585 5579 5573 5566 5560
5599 5592 5602 5611 5621 5618 5616 5617 5620 5620 5625 5622 5633 5638 5648 5653 5655 5658 5658 5657 5656 5654 5652 5650 5646 5643 5640 5637 5633 5630 5625 5621 5617 5611 5606 5601 5595 5589 5583 5578 5572 5565 5559 5553
5589 5589 5593 5598 5611 5614 5612 5616 5619 5621 5627 5628 5632 5638 5656 5660 5658 5656 5655 5653 5651 5649 5648 5646 5643 5639 5636 5632 5629 5624 5620 5615 5610 5604 5599 5593 5587 5581 5575 5570 5563 5557 5551 5545
5577 5580 5580 5582 5598 5598 5595 5615 5619 5622 5629 5629 5627 5641 5650 5649 5650 5650 5651 5650 5648 5646 5644 5641 5638 5634 5631 5628 5624 5619 5614 5609 5603 5597 5591 5585 5580 5573 5567 5562 5555 5549 5543 5536
5571 5574 5574 5573 5579 5568 5606 5630 5629 5626 5631 5635 5638 5643 5645 5646 5647 5649 5650 5647 5643 5642 5639 5636 5632 5629 5626 5622 5618 5613 5607 5600 5594 5588 5582 5577 5571 5565 5558 5552 5546 5540 5534 5528
5570 5569 5564 5562 5567 5581 5609 5624 5629 5623 5626 5639 5638 5640 5641 5640 5638 5638 5644 5643 5639 5636 5633 5629 5626 5622 5618 5614 5610 5604 5597 5591 5585 5579 5574 5569 5563 5556 5550 5544 5538 5532 5526 5520
5566 5567 5561 5559 5562 5572 5610 5627 5635 5624 5616 5640 5639 5638 5635 5629 5617 5627 5636 5635 5631 5628 5624 5620 5617 5614 5609 5605 5600 5594 5587 5582 5576 5571 5566 5560 5554 5548 5541 5535 5529 5523 5517 5511
5553 5555 5556 5557 5562 5584 5617 5627 5624 5602 5618 5641 5641 5639 5633 5626 5627 5628 5627 5624 5621 5617 5614 5611 5607 5602 5598 5594 5589 5583 5577 5572 5567 5562 5556 5550 5545 5539 5532 5526 5520 5514 5508 5501
5553 5553 5555 5558 5560 5579 5613 5616 5613 5620 5635 5638 5638 5636 5632 5627 5624 5621 5617 5613 5610 5605 5603 5599 5593 5589 5586 5583 5578 5572 5566 5562 5557 5552 5546 5540 5534 5529 5523 5516 5509 5503 5496 5489
5561 5567 5570 5574 5585 5607 5611 5613 5621 5626 5626 5629 5629 5629 5626 5620 5615 5612 5607 5603 5599 5595 5590 5587 5581 5577 5573 5570 5567 5560 5555 5551 5546 5540 5534 5528 5523 5517 5512 5505 5498 5492 5485 5477
5565 5573 5574 5578 5589 5599 5605 5611 5615 5619 5619 5621 5622 5621 5618 5613 5608 5603 5598 5593 5588 5583 5578 5574 5569 5564 5559 5557 5554 5549 5544 5540 5534 5528 5522 5517 5511 5505 5500 5494 5487 5480 5473 5465
5561 5568 5571 5576 5588 5592 5598 5603 5606 5610 5611 5611 5611 5611 5609 5605 5600 5595 5590 5584 5577 5572 5567 5563 5558 5553 5549 5545 5541 5537 5533 5528 5522 5516 5510 5505 5499 5493 5487 5482 5476 5470 5463 5455
5559 5567 5571 5576 5587 5588 5593 5599 5601 5600 5600 5601 5600 5599 5598 5596 5592 5586 5580 5573 5567 5560 5555 5550 5546 5542 5537 5533 5529 5525 5521 5516 5510 5504 5498 5492 5486 5480 5474 5468 5463 5458 5452 5446